Cloud_Cover
0 0 0 0 0 0 0 0 0 0 0 0 0 0 0 0 0 2 0 0 0 0 0 0 5 5 1 0 5 14 5 97 100 100 95 100 100 100 100 100 100 100 100 100 100 100 100 100 100
0 0 0 0 0 0 0 0 0 0 0 0 0 0 0 0 0 0 0 0 0 0 0 0 1 4 1 6 9 1 5 7 100 100 100 100 100 100 100 100 100 100 100 100 100 100 100 100 100
0 0 0 0 0 0 0 0 0 0 0 0 0 0 0 0 0 0 0 0 0 0 0 0 0 7 11 12 3 6 0 11 14 100 100 100 100 100 100 100 100 100 100 100 100 100 100 100 100
0 0 0 0 0 0 0 0 0 0 0 0 0 0 0 0 0 0 0 0 0 0 0 0 0 1 14 18 10 10 2 12 23 25 100 100 100 100 100 100 100 100 100 100 100 97 100 100 100
0 0 0 0 0 0 0 0 0 0 0 0 0 0 0 0 0 0 0 0 0 0 0 0 0 0 0 10 21 14 22 16 12 16 37 100 100 100 100 100 100 100 100 100 100 100 100 100 100
0 0 0 0 0 0 0 0 0 0 0 0 0 0 0 0 0 0 0 0 0 0 0 0 0 0 0 0 0 17 40 18 14 15 16 19 97 56 97 100 100 100 100 100 100 100 100 100 98
0 0 0 0 0 0 0 0 0 0 0 0 0 0 0 0 0 0 0 0 0 0 0 0 0 0 0 0 0 3 15 13 6 8 6 0 0 0 0 34 57 100 100 100 100 100 100 100 100
0 0 0 0 0 0 0 0 0 0 0 0 0 0 0 0 0 0 0 0 0 0 0 0 0 0 0 0 0 0 0 0 0 0 0 0 0 2 9 1 4 100 100 100 100 100 100 100 100
0 0 0 0 0 0 0 0 0 0 0 0 0 0 0 0 0 0 0 0 0 0 0 0 0 0 10 0 0 0 0 0 0 0 0 0 0 0 26 31 2 68 100 100 100 100 100 100 100
0 0 0 0 0 0 0 0 0 0 0 0 0 0 0 0 0 0 0 0 0 0 0 0 1 31 33 18 16 25 16 11 13 18 1 0 0 0 0 3 1 24 100 100 72 98 100 100 100
0 0 0 0 0 0 0 0 0 0 0 0 0 0 0 0 0 0 0 0 0 0 0 0 4 28 28 99 99 98 100 59 42 79 58 57 43 94 94 58 100 32 25 100 97 50 100 100 100
0 0 0 0 0 0 0 0 0 0 0 0 0 0 0 0 0 0 0 0 0 0 0 0 0 1 0 39 64 60 54 88 97 80 81 82 100 100 100 100 100 99 100 100 100 100 100 100 100
0 0 0 0 0 0 0 0 0 0 0 0 0 0 0 0 0 0 0 0 0 0 0 0 0 0 4 40 22 3 9 77 100 100 100 100 100 99 100 100 100 90 100 100 100 100 100 100 100
0 0 0 0 0 0 0 0 0 0 0 0 0 0 0 0 0 0 0 0 0 0 0 0 0 0 4 26 5 0 4 84 100 87 100 99 100 98 100 100 100 100 100 100 100 100 100 100 100
0 0 0 0 0 0 0 0 0 0 0 0 0 1 0 0 0 0 0 0 0 0 0 0 0 5 6 33 9 0 0 10 100 100 100 100 95 90 100 98 40 98 100 86 82 100 100 100 100
0 0 0 0 0 0 0 0 1 0 0 1 0 0 0 0 0 0 0 0 0 0 0 0 0 0 1 18 32 0 0 0 68 100 100 100 100 73 2 100 100 100 84 72 97 93 92 100 100
0 0 0 0 0 0 0 0 5 5 3 4 0 0 0 0 0 0 0 0 0 0 0 0 0 0 22 62 87 7 0 0 5 20 79 98 100 100 96 5 40 56 30 38 76 12 0 71 100
0 0 0 0 0 0 0 0 5 5 5 4 0 0 0 0 0 0 0 0 0 0 4 0 0 0 0 89 100 46 0 0 0 0 5 72 100 100 100 99 21 0 0 0 0 1 4 8 72
0 0 0 0 0 0 0 4 5 5 5 3 3 0 0 0 0 0 0 2 0 0 0 0 0 0 0 12 42 36 0 0 0 0 0 5 7 84 100 100 100 85 1 8 2 0 0 32 72
0 0 0 0 0 0 0 5 5 17 5 5 5 5 5 5 0 0 0 0 0 0 0 0 0 0 0 0 28 37 16 0 0 2 0 0 3 5 12 98 100 100 100 70 28 53 52 97 100
0 0 0 0 0 0 0 5 54 18 5 5 4 5 5 0 0 0 0 0 0 0 2 0 0 0 0 0 1 9 4 0 0 0 5 2 2 2 3 32 56 98 100 100 100 95 100 100 100
0 0 0 0 0 0 0 2 67 5 58 78 43 5 5 5 0 0 5 5 5 2 4 0 0 0 0 1 84 5 5 34 12 0 0 5 5 0 0 0 5 37 99 45 99 96 100 100 100
0 0 0 0 0 0 0 3 48 22 97 31 5 5 5 5 5 13 21 42 5 5 3 0 0 2 22 5 48 100 19 4 68 29 0 4 1 0 0 0 2 25 60 96 100 100 100 99 99
0 0 0 0 0 0 0 5 86 5 5 5 5 6 5 5 5 10 5 14 4 5 4 4 5 5 48 64 78 93 100 42 5 70 80 0 94 70 17 0 0 0 6 86 91 53 85 88 20
0 0 0 0 1 2 5 63 5 5 5 6 5 5 5 5 5 5 5 5 5 4 5 5 20 75 91 98 100 100 62 71 92 5 5 20 5 93 100 100 96 78 4 3 5 9 45 64 30
0 0 5 5 5 7 24 99 99 5 8 20 5 5 5 5 5 15 44 5 5 5 11 12 16 98 100 100 100 98 100 87 91 53 5 85 98 71 0 1 60 100 100 98 92 88 7 5 5
2 5 5 6 5 35 100 100 100 54 16 5 5 5 5 5 5 5 6 27 15 50 10 29 100 100 100 100 71 98 87 56 100 45 5 13 92 100 100 72 30 11 18 67 100 100 100 100 5
99 38 48 96 31 47 100 14 73 4 3 1 5 5 5 5 5 44 94 81 94 96 100 100 100 100 88 61 86 99 46 22 12 5 11 60 97 98 100 100 100 100 100 100 100 100 100 100 99
80 84 100 100 100 97 32 98 100 46 5 5 5 5 5 15 92 100 100 100 100 100 100 100 100 96 91 88 86 85 89 81 85 44 56 88 100 92 5 5 5 18 6 33 33 5 5 5 5
84 100 75 100 100 100 63 61 100 100 96 5 5 15 23 54 71 95 100 100 100 100 100 98 100 100 99 100 100 100 93 99 32 7 5 5 9 7 5 5 5 5 5 5 73 99 99 74 13